Location: Kosice
(0.0000°N, 21.2500°E)
Time: 18:50:46
(UTC+01:00)

Ariane H10 - Pass Details

Date: 24 January 2021
Orbit: 346 x 30758 km, 7.5° (Epoch: 01 March)

Event Time Altitude Azimuth Distance (km) Brightness Sun altitude
Rises 11:06:24 0° 265° (W) 17,360 9.8 68.4°
Reaches altitude 10° 11:26:48 10° 263° (W) 20,340 10.3 70.3°
Drops below altitude 10° 15:23:53 10° 262° (W) 34,741 12.7 33.6°
Maximum altitude 18:57:04 61° 347° (NNW) 1,657 4.6 -16.5°
Enters shadow 19:00:15 26° 58° (ENE) 1,776 4.3 -17.2°
